星链-5679 (STARLINK-5679 )

导读

STARLINK-5679是美国SpaceX公司星链星座的成员,于2023年2月2日发射。作为低轨宽带通信卫星,它采用平板设计与氪工质霍尔推进器,依托Ku、Ka波段通信技术,旨在为全球尤其是偏远地区提供高速低延迟互联网服务。星链卫星具备自主避撞能力,寿命末期会主动离轨坠入大气层烧毁,单星设计寿命约5-7年。

Basic Information
目录编号:
55467
目录名称:
STARLINK-5679
国际标识:
2023-015U
轨道中心:
EARTH
卫星名称:
星链-5679
卫星全名:
星链-5679 (STARLINK-5679 )
卫星状态:
在轨 (已飞行1318 天)
发射日期:
2023-02-02 UTC
国别 :
美国 (US)
星等 :
--
This satellite is enrolled in the Space Conjunction Data Service (SCDS) and the current flight risk assessment level is: High Risk
Orbit Information
数据来源 国际轨道数据
星历时间: 2026-09-12T15:01:52+0800
9小时前
查看轨道信息
半长轴: 6861.182km
偏心率: 0.0001592
轨道倾角: 43.003°
近地点辐角 268.549°
升交点赤经 354.616°
平近点角 91.518°
近地点: 481.952km
远地点: 484.138km
周期: 94.267分钟
每日圈数: 15.275817
Detailed Information
固有亮度:
5
最大亮度:
2.5
卫星平台:
Starlink v1.5
覆盖范围:
全球
运营商:
太空探索技术公司
运营商所在国:
美国
制造商(研发单位):
太空探索技术公司
制造商所在国:
美国
使用方式:
暂无
Satellite Introduction
星链(Starlink)计划是由太空探索技术公司(SpaceX)提出的一个巨型低轨卫星互联网星座项目,计划在2019年至2024年间在太空搭建由约1.2万颗卫星组成的“星链”网络,其中1584颗将部署在地球上空550千米处的近地轨道,并从2020年开始工作。该卫星仍在工作。
2D Orbit Map
3D Orbit Map
Orbit Altitude Analysis Chart
Orbit Inclination Analysis Chart
Orbit Comprehensive Analysis Chart
View Comprehensive Chart
Conjunction Data List
Event ID Objects TCA Miss Dist (km) Collision Risk Probability Collision Risk Index (CRI) Action
CDM_260913-151605-546706-396622
2026-09-13T
15:16:52+0000
0.304 km
远距离
4.228169E-4 高风险 0.88
CDM_260914-074605-546706-196322
2026-09-14T
07:46:12+0000
0.801 km
远距离
4.334534E-5 中风险 0.68
CDM_260914-173005-546706-687221
2026-09-14T
17:30:36+0000
0.658 km
远距离
2.315975E-5 中风险 0.62
CDM_260914-092005-546706-196321
2026-09-14T
09:20:22+0000
1.199 km
极远距离
1.095476E-5 中风险 0.56
CDM_260914-075505-546706-075022
OBJECT F (60750)
2026-09-14T
07:55:29+0000
1.249 km
极远距离
8.829424E-6 低风险 0.54
CDM_260913-033005-546706-396622
2026-09-13T
03:30:44+0000
1.610 km
极远距离
4.138662E-6 低风险 0.47
CDM_260912-124405-546706-329722
OBJECT G (63297)
2026-09-12T
12:44:52+0000
1.926 km
极远距离
2.244882E-6 低风险 0.42
CDM_260913-050405-546706-396622
2026-09-13T
05:04:53+0000
2.042 km
极远距离
2.139922E-6 低风险 0.42
CDM_260914-061205-546706-196322
2026-09-14T
06:12:03+0000
2.453 km
极远距离
1.441388E-6 低风险 0.38
CDM_260914-105405-546706-196321
2026-09-14T
10:54:31+0000
2.954 km
极远距离
1.092966E-6 低风险 0.36
Miss Distance Evolution Trend with All Objects
Collision Probability Evolution Trend with All Objects